Regional Weather Roundup
Issued by NWS

Home | Current Version | Previous Version | Graphics & Text | Print | Product List | Glossary On
Versions: 1 2 3 4 5 6 7 8 9 10 11 12 13 14 15 16 17 18 19 20 21 22 23 24 25 26 27 28 29 30 31 32 33 34 35 36 37 38 39 40 41 42 43 44 45 46 47 48 49 50
000
ASUS43 KBIS 210102
RWRND

NORTH DAKOTA REGIONAL WEATHER ROUNDUP
NATIONAL WEATHER SERVICE BISMARCK ND
800 PM CDT THU JUL 20 2017

NOTE: "FAIR" INDICATES FEW OR NO CLOUDS BELOW 12,000 FEET WITH NO
SIGNIFICANT WEATHER AND/OR OBSTRUCTIONS TO VISIBILITY.


NDZ001>003-009>011-017-210200-
NORTHWEST NORTH DAKOTA

CITY           SKY/WX    TMP DP  RH WIND       PRES   REMARKS
WILLISTON      MOSUNNY   85  50  29 E18G26    29.82S
MINOT          CLOUDY    78  65  63 NE6       29.87R
MINOT AFB      CLOUDY    79  62  55 NE7       29.85S
$$

NDZ018>021-031>035-040>046-210200-
SOUTHWEST NORTH DAKOTA

CITY           SKY/WX    TMP DP  RH WIND       PRES   REMARKS
BISMARCK       LGT RAIN  86  53  32 E16       29.89R
DICKINSON      CLOUDY    73  61  65 E15       29.84R
GARRISON         N/A     75  61  61 NE8       29.86S
HETTINGER ARPT TSTM      67  62  84 S12       29.93R
$$

NDZ004>008-012>016-024-026-027-054-210200-
NORTHEAST NORTH DAKOTA

CITY           SKY/WX    TMP DP  RH WIND       PRES   REMARKS
GRAND FORKS    CLOUDY    82  63  52 SE7       29.91F
GRND FRKS AFB  CLOUDY    79  66  64 SE7       29.92F
DEVILS LAKE    CLOUDY    77  67  71 E10       29.91F
$$

NDZ022-023-025-028>030-036>039-047>053-210200-
SOUTHEAST NORTH DAKOTA

CITY           SKY/WX    TMP DP  RH WIND       PRES   REMARKS
FARGO          CLOUDY    84  69  60 E5        29.91S
JAMESTOWN      CLOUDY    81  65  58 SE7       29.91R
$$





USA.gov is the U.S. government's official web portal to all federal, state and local government web resources and services.